Location: Squirrel Cove
(50.1074°N, 124.9139°W)
Time: 12:17:30
(UTC-07:00)

ISS - Visible Passes

Search period start: 24 March 2023 00:00
Search period end: 03 April 2023 00:00
Orbit: 414 x 422 km, 51.6° (Epoch: 24 March)

Date Brightness Start Highest point End Pass type
(mag) Time Alt. Az. Time Alt. Az. Time Alt. Az.
24 Mar -3.8 21:36:48 10° WNW 21:40:09 75° N 21:40:22 70° NE visible
25 Mar -3.6 20:48:51 10° WNW 20:52:12 67° N 20:54:22 20° E visible
25 Mar -1.7 22:25:41 10° WNW 22:27:18 25° W 22:27:18 25° W visible
26 Mar -3.9 21:37:43 10° WNW 21:41:03 74° SSW 21:41:16 70° SSE visible
27 Mar -3.8 20:49:42 10° WNW 20:53:04 87° NNE 20:55:13 21° ESE visible
27 Mar -1.4 22:26:42 10° W 22:28:08 20° WSW 22:28:08 20° WSW visible
28 Mar -3.0 21:38:32 10° W 21:41:42 39° SSW 21:42:05 38° S visible
29 Mar -3.4 20:50:25 10° WNW 20:53:43 56° SSW 20:56:01 18° SE visible
29 Mar -0.9 22:28:15 10° WSW 22:28:57 12° WSW 22:28:57 12° WSW visible
30 Mar -1.8 21:39:32 10° W 21:42:02 20° SW 21:42:54 18° SSW visible
31 Mar -2.2 20:51:07 10° W 20:54:04 28° SSW 20:56:53 11° SSE visible
02 Apr -1.1 20:52:18 10° WSW 20:54:07 14° SW 20:55:53 10° S visible
